Regional Weather Roundup
Issued by NWS

Home | Current Version | Previous Version | Graphics & Text | Print | Product List | Glossary On
Versions: 1 2 3 4 5 6 7 8 9 10 11 12 13 14 15 16 17 18 19 20 21 22 23 24 25 26 27 28 29 30 31 32 33 34 35 36 37 38 39 40 41 42 43 44 45 46 47 48 49 50
001
ASUS43 KDMX 122203
RWRIA

WEATHER ROUNDUP FOR IOWA
NATIONAL WEATHER SERVICE DES MOINES IA
400 PM CST FRI FEB 12 2016

NOTE: "FAIR" INDICATES FEW OR NO CLOUDS BELOW 12,000 FEET WITH NO
SIGNIFICANT WEATHER AND/OR OBSTRUCTIONS TO VISIBILITY.

* - THESE STATIONS ARE NOT NWS STATIONS...THUS NOT UNDER NWS
QUALITY CONTROL.  THEY ALSO DO NOT REPORT WEATHER SUCH
AS PRECIPITATION OR FOG.

IAZ001>003-012>014-020>022-031>034-043>046-122300-
   NORTHWEST IOWA

CITY           SKY/WX    TMP DP  RH WIND       PRES   REMARKS
CARROLL *      SUNNY     12   3  67 N17G23    30.52R WCI  -5
CHEROKEE *     SUNNY     12   1  62 NW17      30.54R WCI  -5
DENISON *      CLOUDY    12   3  67 N15G21    30.52R WCI  -4
LE MARS *      SUNNY     12   3  67 N15G21    30.59R WCI  -4
ORANGE CITY *  SUNNY     10   1  67 N14       30.54R WCI  -5
SHELDON *      SUNNY      9   0  66 NW18      30.53R WCI -10
SIOUX CITY     SUNNY     18   3  52 N10       30.58R WCI   6
SPENCER        SUNNY      8  -1  66 N23       30.52R WCI -13
STORM LAKE *   SUNNY     10   0  61 N22G28    30.50R WCI  -9
$$

IAZ055>058-069>071-079>083-090>094-122300-
   SOUTHWEST IOWA

CITY           SKY/WX    TMP DP  RH WIND       PRES   REMARKS
ATLANTIC *     SUNNY     16   7  67 N16       30.53R WCI   0
AUDUBON *      SUNNY     16   1  53 N13G21    30.52R WCI   2
CLARINDA *     SUNNY     23   7  50 N17       30.55R WCI   9
COUNCIL BLFS * MOSUNNY   19   9  63 N16       30.53R WCI   5
CRESTON *      SUNNY     18   5  57 N15G22    30.50R WCI   3
HARLAN  *      CLOUDY    16   7  67 NW18      30.57R WCI  -1
LAMONI         SUNNY     20  -2  38 N15       30.47R WCI   6
RED OAK *      SUNNY     21   9  58 N17       30.55R WCI   7
SHENANDOAH *   SUNNY     23   7  50 N16G25    30.55R WCI  10
$$

IAZ047>049-059>061-072>074-084-122300-
   CENTRAL IOWA

CITY           SKY/WX    TMP DP  RH WIND       PRES   REMARKS
AMES           SUNNY     14   2  58 NW26      30.49R WCI  -6
ANKENY *       SUNNY     16   3  57 NW16G24   30.50R WCI   0
BOONE *        MOSUNNY   14   1  57 NW14G20   30.47R WCI  -1
CHARITON *     SUNNY     18   3  53 NW20      30.47R WCI   1
DES MOINES     MOSUNNY   17   0  47 N16       30.50R WCI   2
GRINNELL*      SUNNY     16   7  67 NW22      30.44R WCI  -2
KNOXVILLE *    SUNNY     18   1  49 NW22      30.46R WCI   0
MARSHALLTOWN   SUNNY     13   2  61 NW24      30.46R WCI  -7
NEWTON *       FLURRIES  16   1  53 NW29      30.45R WCI  -4
PELLA *        SUNNY     19   4  54 NW20      30.48R WCI   2
$$

IAZ004>006-015-016-023>025-035-036-122300-
   NORTH CENTRAL IOWA

CITY           SKY/WX    TMP DP  RH WIND       PRES   REMARKS
ALGONA *       CLOUDY    10   1  67 NW24G30   30.48R WCI -10
CLARION *      PTSUNNY   10   1  67 N23       30.47R WCI -10
ESTHERVILLE    PTSUNNY    6   0  76 NW21G30   30.50R WCI -14
FORT DODGE *   SUNNY     10  -2  56 N10G21    30.51R WCI  -3
MASON CITY     SUNNY     10  -1  61 NW21      30.45R WCI  -9
FOREST CITY *    N/A     12   0  57 NW22G32   30.45R WCI  -7
WEBSTER CITY * PTSUNNY   12   3  67 NW24      30.47R WCI  -8
IOWA FALLS *     N/A     12   3  67 NW22G28   30.46R WCI  -7
$$

IAZ007>011-017>019-026>030-037>042-050>054-066-122300-
   NORTHEAST IOWA

CITY           SKY/WX    TMP DP  RH WIND       PRES   REMARKS
CEDAR RAPIDS   SUNNY     17   2  51 NW23G33   30.39R WCI  -1
CHARLES CITY * SUNNY     10  -4  52 NW24      30.42R WCI -10
CLINTON *      SUNNY     19   5  54 NW23G30   30.34R WCI   2
DECORAH *      SUNNY     10  -6  48 NW21      30.36R WCI  -9
DUBUQUE        SUNNY     15  -1  49 NW28G33   30.31R WCI  -5
MONTICELLO *   SUNNY     16   1  53 NW18G32   30.36R WCI  -1
OELWEIN *      SUNNY     10   0  61 NW26      30.39R WCI -11
WATERLOO       SUNNY     13  -1  54 NW24G35   30.42R WCI  -7
$$

IAZ064-065-067-068-078-122300-
   EAST CENTRAL IOWA

CITY           SKY/WX    TMP DP  RH WIND       PRES   REMARKS
DAVENPORT      SUNNY     18   0  45 NW25G38   30.34R WCI   0
IOWA CITY      SUNNY     19   2  47 NW18G31   30.42R WCI   4
MT. PLEASANT * SUNNY     24   3  40 NW18G29   30.40R WCI  11
MUSCATINE *    SUNNY     23   0  36 NW23G31   30.40R WCI   7
QUAD CITIES    SUNNY     21  -1  38 NW20G35   30.35R WCI   6
$$

IAZ062-063-075>077-085>089-095>099-122300-
   SOUTHEAST IOWA

CITY           SKY/WX    TMP DP  RH WIND       PRES   REMARKS
BURLINGTON     SUNNY     22   3  44 NW15G30   30.38R WCI   9
FAIRFIELD *    FLURRIES  19   3  49 NW23      30.41R WCI   2
FORT MADISON * SUNNY     25   7  46 NW17G30   30.39R WCI  11
KEOKUK *       SUNNY     25   7  46 NW20G28   30.39R WCI  11
OSKALOOSA *      N/A     18   7  62 NW24G31   30.44R WCI   0
OTTUMWA        SUNNY     19   3  49 NW26G33   30.44R WCI   1
WASHINGTON *   SUNNY     19   5  53 NW18G31   30.42R WCI   4
$$

ABBREVIATIONS USED IN REMARKS
   TC - TEMPERATURES IN CELSIUS
  WCI - WIND CHILL INDEX
   HX - HEAT INDEX
  VSB - VISIBILITY
$$





USA.gov is the U.S. government's official web portal to all federal, state and local government web resources and services.